QPF
0.07 0.05 0.04 0.03 0.02 0.02 0.02 0.02 0.01 0.01 0.02 0.02 0.02 0.02 0.02 0.02 0.02 0.03 0.05 0.05 0.06 0.05 0.05 0.03 0.03 0.03 0.02 0.02 0.02 0.03 0.03 0.03 0.02 0.01 0.02 0.04 0.03 0.02 0.02 0.02 0.01 0.02 0.02
0.06 0.05 0.06 0.07 0.04 0.03 0.03 0.02 0.02 0.02 0.02 0.02 0.02 0.02 0.02 0.02 0.03 0.04 0.05 0.04 0.04 0.04 0.04 0.03 0.02 0.02 0.03 0.03 0.03 0.02 0.01 0.01 0.01 0.01 0.02 0.04 0.03 0.03 0.02 0.02 0.02 0.01 0.01
0.04 0.04 0.04 0.04 0.04 0.03 0.04 0.03 0.03 0.03 0.04 0.04 0.03 0.02 0.02 0.03 0.04 0.05 0.05 0.04 0.04 0.04 0.03 0.02 0.02 0.02 0.02 0.03 0.02 0.01 0.01 0.01 0.01 0.02 0.02 0.03 0.03 0.03 0.03 0.03 0.03 0.02 0.01
0.05 0.04 0.03 0.03 0.03 0.03 0.03 0.03 0.03 0.04 0.06 0.04 0.02 0.02 0.03 0.05 0.05 0.06 0.05 0.05 0.04 0.04 0.03 0.02 0.02 0.03 0.03 0.03 0.03 0.02 0.02 0.02 0.02 0.02 0.02 0.02 0.02 0.02 0.03 0.03 0.04 0.03 0.02
0.04 0.03 0.03 0.03 0.04 0.04 0.04 0.05 0.06 0.06 0.04 0.02 0.02 0.03 0.05 0.06 0.05 0.06 0.06 0.05 0.05 0.05 0.04 0.03 0.02 0.03 0.03 0.03 0.03 0.03 0.03 0.03 0.04 0.03 0.02 0.01 0.01 0.01 0.02 0.02 0.02 0.02 0.02
0.04 0.04 0.05 0.05 0.06 0.05 0.05 0.04 0.04 0.04 0.03 0.02 0.03 0.04 0.06 0.06 0.05 0.06 0.06 0.07 0.06 0.05 0.04 0.04 0.05 0.04 0.03 0.03 0.03 0.04 0.05 0.04 0.03 0.02 0.02 0.01 0.01 0.01 0.01 0.02 0.02 0.02 0.02
0.06 0.05 0.04 0.04 0.06 0.06 0.04 0.03 0.03 0.03 0.03 0.03 0.04 0.06 0.06 0.06 0.06 0.07 0.09 0.09 0.07 0.06 0.05 0.06 0.08 0.07 0.07 0.06 0.06 0.05 0.04 0.04 0.04 0.03 0.02 0.01 0.01 0.01 0.01 0.01 0.01 0.01 0.01
0.10 0.10 0.05 0.04 0.04 0.07 0.07 0.08 0.07 0.06 0.04 0.04 0.04 0.05 0.06 0.06 0.07 0.09 0.10 0.10 0.08 0.06 0.06 0.07 0.08 0.07 0.06 0.08 0.07 0.04 0.03 0.04 0.03 0.02 0.02 0.01 0.01 0.01 0.02 0.01 0.02 0.02 0.01
0.06 0.07 0.07 0.06 0.06 0.07 0.07 0.09 0.08 0.07 0.06 0.05 0.05 0.04 0.06 0.07 0.08 0.10 0.09 0.08 0.07 0.07 0.06 0.06 0.06 0.06 0.08 0.10 0.08 0.07 0.05 0.04 0.02 0.01 0.01 0.00 0.01 0.01 0.01 0.01 0.01 0.01 0.02
0.10 0.07 0.08 0.08 0.08 0.08 0.10 0.11 0.11 0.09 0.09 0.10 0.09 0.08 0.07 0.08 0.10 0.09 0.08 0.07 0.06 0.06 0.06 0.06 0.06 0.06 0.07 0.09 0.08 0.06 0.04 0.03 0.02 0.01 0.01 0.01 0.01 0.01 0.02 0.02 0.02 0.01 0.01
0.07 0.06 0.07 0.08 0.10 0.13 0.16 0.17 0.17 0.17 0.16 0.16 0.15 0.13 0.11 0.08 0.08 0.08 0.09 0.07 0.05 0.04 0.04 0.04 0.04 0.05 0.06 0.06 0.06 0.05 0.04 0.03 0.02 0.01 0.01 0.00 0.01 0.01 0.01 0.01 0.01 0.02 0.01
0.07 0.05 0.06 0.09 0.12 0.15 0.22 0.24 0.25 0.22 0.19 0.16 0.13 0.12 0.09 0.07 0.06 0.07 0.08 0.07 0.06 0.05 0.04 0.04 0.04 0.05 0.05 0.04 0.03 0.02 0.03 0.02 0.01 0.01 0.01 0.01 0.01 0.01 0.01 0.01 0.01 0.02 0.02
0.05 0.06 0.06 0.07 0.10 0.15 0.24 0.30 0.27 0.22 0.17 0.15 0.13 0.10 0.08 0.08 0.08 0.09 0.11 0.10 0.09 0.08 0.06 0.05 0.03 0.03 0.02 0.02 0.02 0.02 0.02 0.01 0.01 0.01 0.00 0.00 0.00 0.01 0.01 0.01 0.01 0.01 0.02
0.05 0.06 0.08 0.09 0.10 0.14 0.18 0.18 0.17 0.14 0.12 0.11 0.10 0.09 0.09 0.09 0.08 0.09 0.09 0.09 0.09 0.08 0.05 0.04 0.03 0.02 0.02 0.02 0.01 0.01 0.01 0.00 0.00 0.00 0.01 0.01 0.01 0.01 0.01 0.01 0.01 0.01 0.01
0.05 0.06 0.08 0.09 0.13 0.16 0.15 0.14 0.12 0.11 0.10 0.09 0.08 0.09 0.09 0.10 0.11 0.12 0.11 0.09 0.07 0.06 0.06 0.05 0.04 0.02 0.02 0.02 0.01 0.01 0.01 0.00 0.00 0.00 0.01 0.01 0.01 0.01 0.01 0.01 0.01 0.01 0.01
0.06 0.06 0.07 0.09 0.10 0.12 0.11 0.09 0.08 0.08 0.08 0.07 0.08 0.10 0.11 0.11 0.12 0.14 0.12 0.09 0.08 0.07 0.06 0.04 0.03 0.03 0.02 0.02 0.01 0.01 0.01 0.01 0.01 0.01 0.01 0.01 0.00 0.01 0.01 0.01 0.01 0.01 0.01
0.05 0.06 0.08 0.10 0.09 0.08 0.09 0.09 0.07 0.07 0.07 0.06 0.06 0.07 0.08 0.09 0.10 0.10 0.10 0.09 0.09 0.09 0.07 0.05 0.04 0.04 0.03 0.03 0.03 0.02 0.02 0.02 0.02 0.02 0.01 0.01 0.01 0.02 0.02 0.02 0.02 0.02 0.01
0.03 0.04 0.05 0.06 0.08 0.09 0.10 0.10 0.09 0.07 0.06 0.06 0.05 0.04 0.05 0.06 0.07 0.08 0.09 0.09 0.08 0.09 0.08 0.07 0.08 0.08 0.08 0.07 0.06 0.05 0.04 0.04 0.03 0.03 0.03 0.02 0.02 0.03 0.03 0.03 0.03 0.03 0.02
0.02 0.02 0.04 0.05 0.06 0.08 0.10 0.10 0.09 0.08 0.07 0.07 0.07 0.06 0.05 0.04 0.04 0.05 0.06 0.06 0.06 0.07 0.09 0.09 0.08 0.08 0.06 0.05 0.04 0.04 0.04 0.04 0.04 0.04 0.03 0.03 0.03 0.03 0.03 0.03 0.03 0.03 0.03
0.03 0.02 0.03 0.04 0.06 0.07 0.07 0.08 0.09 0.09 0.09 0.08 0.07 0.07 0.06 0.05 0.04 0.03 0.04 0.05 0.05 0.06 0.06 0.07 0.08 0.08 0.07 0.06 0.06 0.05 0.04 0.04 0.04 0.03 0.03 0.03 0.03 0.02 0.02 0.02 0.03 0.03 0.04
0.03 0.02 0.03 0.03 0.04 0.07 0.07 0.07 0.07 0.08 0.08 0.08 0.08 0.08 0.08 0.06 0.05 0.03 0.03 0.04 0.04 0.05 0.05 0.06 0.07 0.08 0.08 0.07 0.05 0.05 0.04 0.04 0.04 0.04 0.05 0.04 0.03 0.03 0.02 0.03 0.04 0.05 0.05
0.04 0.04 0.03 0.03 0.04 0.06 0.08 0.08 0.07 0.07 0.07 0.07 0.07 0.08 0.08 0.06 0.04 0.03 0.03 0.04 0.05 0.06 0.05 0.05 0.05 0.05 0.05 0.06 0.06 0.06 0.06 0.06 0.05 0.05 0.05 0.05 0.05 0.05 0.04 0.03 0.04 0.04 0.04
0.08 0.08 0.06 0.06 0.06 0.06 0.06 0.06 0.06 0.06 0.06 0.07 0.06 0.06 0.07 0.06 0.05 0.04 0.04 0.04 0.05 0.06 0.05 0.05 0.04 0.04 0.05 0.05 0.06 0.05 0.06 0.05 0.04 0.04 0.03 0.04 0.04 0.05 0.05 0.05 0.04 0.04 0.04
0.07 0.07 0.06 0.07 0.08 0.07 0.06 0.06 0.06 0.07 0.06 0.06 0.06 0.07 0.07 0.07 0.07 0.06 0.05 0.04 0.03 0.03 0.03 0.03 0.04 0.04 0.04 0.05 0.05 0.04 0.04 0.04 0.04 0.04 0.03 0.03 0.03 0.03 0.03 0.04 0.04 0.04 0.05
0.04 0.05 0.07 0.09 0.10 0.11 0.10 0.07 0.06 0.07 0.07 0.06 0.05 0.06 0.06 0.06 0.07 0.07 0.06 0.04 0.03 0.03 0.03 0.03 0.03 0.03 0.03 0.03 0.03 0.04 0.04 0.04 0.04 0.04 0.04 0.04 0.03 0.03 0.03 0.03 0.03 0.03 0.04
0.07 0.07 0.09 0.09 0.09 0.12 0.13 0.11 0.09 0.08 0.08 0.07 0.06 0.05 0.06 0.06 0.06 0.05 0.04 0.04 0.03 0.03 0.03 0.03 0.03 0.02 0.02 0.02 0.03 0.04 0.05 0.05 0.05 0.05 0.05 0.04 0.04 0.03 0.03 0.03 0.03 0.03 0.03
MSLP
1008.88 1009.43 1009.98 1010.47 1010.87 1011.13 1011.28 1011.34 1011.35 1011.38 1011.46 1011.62 1011.86 1012.15 1012.45 1012.73 1012.94 1013.07 1013.11 1013.09 1013.03 1012.98 1012.96 1012.99 1013.06 1013.17 1013.29 1013.40 1013.46 1013.46 1013.40 1013.28 1013.13 1012.95 1012.77 1012.59 1012.41 1012.25 1012.09 1011.96 1011.85 1011.78 1011.76
1008.34 1008.90 1009.45 1009.94 1010.32 1010.58 1010.71 1010.76 1010.77 1010.79 1010.87 1011.01 1011.24 1011.53 1011.83 1012.11 1012.34 1012.48 1012.54 1012.52 1012.46 1012.39 1012.33 1012.31 1012.34 1012.41 1012.50 1012.59 1012.66 1012.70 1012.70 1012.67 1012.60 1012.51 1012.40 1012.28 1012.15 1012.01 1011.86 1011.72 1011.59 1011.50 1011.46
1007.70 1008.29 1008.84 1009.33 1009.71 1009.96 1010.09 1010.14 1010.16 1010.18 1010.25 1010.40 1010.63 1010.91 1011.22 1011.50 1011.73 1011.89 1011.95 1011.95 1011.89 1011.81 1011.74 1011.69 1011.69 1011.73 1011.79 1011.88 1011.96 1012.03 1012.08 1012.10 1012.10 1012.07 1012.02 1011.95 1011.85 1011.73 1011.59 1011.45 1011.32 1011.22 1011.17
1006.95 1007.54 1008.11 1008.59 1008.97 1009.23 1009.38 1009.45 1009.49 1009.54 1009.63 1009.79 1010.03 1010.32 1010.62 1010.91 1011.14 1011.30 1011.38 1011.38 1011.33 1011.25 1011.17 1011.12 1011.10 1011.12 1011.17 1011.25 1011.34 1011.43 1011.50 1011.55 1011.59 1011.59 1011.57 1011.52 1011.44 1011.34 1011.22 1011.09 1010.97 1010.88 1010.85
1006.10 1006.68 1007.24 1007.73 1008.12 1008.39 1008.57 1008.69 1008.77 1008.87 1009.00 1009.20 1009.46 1009.76 1010.07 1010.35 1010.58 1010.74 1010.81 1010.82 1010.76 1010.69 1010.62 1010.56 1010.54 1010.56 1010.61 1010.68 1010.77 1010.85 1010.93 1010.98 1011.02 1011.03 1011.01 1010.96 1010.89 1010.79 1010.68 1010.57 1010.47 1010.42 1010.42
1005.20 1005.76 1006.30 1006.79 1007.18 1007.49 1007.71 1007.88 1008.03 1008.19 1008.40 1008.65 1008.94 1009.26 1009.56 1009.84 1010.06 1010.20 1010.26 1010.26 1010.20 1010.13 1010.06 1010.01 1010.00 1010.02 1010.07 1010.13 1010.21 1010.28 1010.34 1010.37 1010.38 1010.36 1010.32 1010.25 1010.16 1010.06 1009.96 1009.87 1009.82 1009.80 1009.85
1004.39 1004.90 1005.40 1005.87 1006.26 1006.59 1006.86 1007.10 1007.33 1007.57 1007.84 1008.15 1008.48 1008.82 1009.13 1009.39 1009.58 1009.70 1009.74 1009.71 1009.65 1009.58 1009.51 1009.47 1009.46 1009.48 1009.53 1009.60 1009.66 1009.71 1009.73 1009.72 1009.69 1009.63 1009.54 1009.43 1009.32 1009.21 1009.12 1009.05 1009.03 1009.07 1009.17
1003.80 1004.24 1004.69 1005.11 1005.49 1005.83 1006.14 1006.43 1006.73 1007.05 1007.39 1007.75 1008.12 1008.47 1008.77 1009.01 1009.17 1009.25 1009.26 1009.21 1009.13 1009.05 1008.99 1008.95 1008.95 1008.98 1009.03 1009.08 1009.13 1009.15 1009.14 1009.09 1009.01 1008.90 1008.76 1008.61 1008.47 1008.35 1008.25 1008.20 1008.21 1008.29 1008.45
1003.56 1003.91 1004.27 1004.64 1004.99 1005.32 1005.64 1005.98 1006.32 1006.69 1007.08 1007.48 1007.86 1008.21 1008.50 1008.71 1008.83 1008.88 1008.85 1008.77 1008.68 1008.59 1008.52 1008.49 1008.49 1008.52 1008.58 1008.63 1008.66 1008.66 1008.62 1008.54 1008.42 1008.26 1008.09 1007.91 1007.74 1007.60 1007.50 1007.45 1007.48 1007.59 1007.79
1003.71 1003.96 1004.24 1004.53 1004.82 1005.12 1005.44 1005.78 1006.14 1006.53 1006.94 1007.35 1007.73 1008.06 1008.32 1008.49 1008.58 1008.59 1008.53 1008.43 1008.31 1008.21 1008.14 1008.11 1008.12 1008.15 1008.20 1008.25 1008.28 1008.27 1008.21 1008.11 1007.97 1007.79 1007.60 1007.41 1007.23 1007.08 1006.98 1006.94 1006.97 1007.09 1007.31
1004.24 1004.39 1004.58 1004.79 1005.01 1005.26 1005.54 1005.85 1006.20 1006.57 1006.97 1007.35 1007.70 1008.00 1008.22 1008.36 1008.41 1008.38 1008.30 1008.18 1008.06 1007.95 1007.88 1007.84 1007.85 1007.88 1007.93 1007.97 1007.99 1007.98 1007.92 1007.82 1007.68 1007.52 1007.33 1007.15 1006.97 1006.83 1006.74 1006.71 1006.74 1006.86 1007.06
1005.05 1005.13 1005.23 1005.35 1005.50 1005.68 1005.90 1006.16 1006.46 1006.79 1007.13 1007.46 1007.77 1008.02 1008.20 1008.30 1008.32 1008.27 1008.18 1008.05 1007.92 1007.81 1007.73 1007.69 1007.69 1007.71 1007.74 1007.77 1007.78 1007.77 1007.72 1007.64 1007.53 1007.39 1007.24 1007.09 1006.95 1006.83 1006.76 1006.74 1006.77 1006.87 1007.06
1006.00 1006.02 1006.05 1006.10 1006.18 1006.29 1006.44 1006.63 1006.86 1007.12 1007.39 1007.66 1007.90 1008.10 1008.23 1008.30 1008.30 1008.25 1008.15 1008.03 1007.91 1007.79 1007.71 1007.65 1007.62 1007.61 1007.61 1007.62 1007.62 1007.60 1007.56 1007.50 1007.42 1007.33 1007.23 1007.13 1007.04 1006.97 1006.93 1006.93 1006.97 1007.06 1007.22
1006.94 1006.92 1006.90 1006.90 1006.92 1006.97 1007.05 1007.17 1007.33 1007.51 1007.70 1007.90 1008.08 1008.22 1008.32 1008.36 1008.36 1008.31 1008.22 1008.12 1008.00 1007.89 1007.79 1007.70 1007.63 1007.58 1007.54 1007.50 1007.46 1007.42 1007.37 1007.32 1007.27 1007.23 1007.18 1007.15 1007.12 1007.11 1007.11 1007.14 1007.19 1007.29 1007.43
1007.74 1007.70 1007.66 1007.64 1007.62 1007.63 1007.66 1007.72 1007.81 1007.92 1008.04 1008.17 1008.29 1008.39 1008.46 1008.50 1008.50 1008.46 1008.40 1008.31 1008.20 1008.09 1007.97 1007.85 1007.73 1007.61 1007.50 1007.39 1007.29 1007.20 1007.13 1007.07 1007.04 1007.02 1007.02 1007.03 1007.06 1007.10 1007.15 1007.21 1007.29 1007.40 1007.54
1008.34 1008.30 1008.27 1008.24 1008.21 1008.20 1008.21 1008.23 1008.27 1008.32 1008.39 1008.47 1008.55 1008.62 1008.67 1008.71 1008.72 1008.71 1008.67 1008.61 1008.51 1008.39 1008.25 1008.09 1007.91 1007.72 1007.52 1007.33 1007.15 1006.99 1006.86 1006.77 1006.71 1006.68 1006.69 1006.73 1006.79 1006.86 1006.95 1007.05 1007.17 1007.30 1007.46
1008.74 1008.73 1008.71 1008.70 1008.70 1008.69 1008.69 1008.70 1008.71 1008.74 1008.77 1008.82 1008.87 1008.92 1008.97 1009.02 1009.05 1009.06 1009.05 1009.01 1008.93 1008.80 1008.64 1008.44 1008.20 1007.93 1007.65 1007.36 1007.09 1006.84 1006.63 1006.47 1006.35 1006.29 1006.27 1006.30 1006.35 1006.44 1006.54 1006.67 1006.81 1006.97 1007.16
1009.04 1009.04 1009.06 1009.08 1009.10 1009.12 1009.14 1009.15 1009.16 1009.18 1009.20 1009.23 1009.26 1009.31 1009.36 1009.42 1009.47 1009.51 1009.52 1009.50 1009.43 1009.31 1009.13 1008.90 1008.61 1008.28 1007.92 1007.55 1007.18 1006.84 1006.54 1006.29 1006.09 1005.95 1005.87 1005.84 1005.86 1005.92 1006.01 1006.13 1006.28 1006.47 1006.69
1009.30 1009.33 1009.38 1009.43 1009.49 1009.54 1009.59 1009.62 1009.64 1009.66 1009.68 1009.70 1009.74 1009.78 1009.84 1009.90 1009.97 1010.02 1010.06 1010.05 1010.00 1009.89 1009.71 1009.46 1009.14 1008.77 1008.36 1007.93 1007.49 1007.07 1006.67 1006.33 1006.03 1005.80 1005.63 1005.51 1005.46 1005.45 1005.50 1005.59 1005.73 1005.92 1006.16
1009.62 1009.67 1009.74 1009.82 1009.91 1009.99 1010.06 1010.12 1010.16 1010.19 1010.21 1010.23 1010.26 1010.30 1010.35 1010.42 1010.49 1010.55 1010.59 1010.61 1010.57 1010.47 1010.30 1010.06 1009.75 1009.37 1008.95 1008.48 1008.00 1007.52 1007.07 1006.64 1006.25 1005.92 1005.64 1005.43 1005.27 1005.18 1005.15 1005.19 1005.29 1005.46 1005.70
1010.03 1010.08 1010.16 1010.26 1010.37 1010.47 1010.56 1010.64 1010.69 1010.73 1010.76 1010.77 1010.79 1010.82 1010.86 1010.91 1010.97 1011.02 1011.07 1011.08 1011.06 1010.98 1010.84 1010.63 1010.35 1010.00 1009.59 1009.14 1008.67 1008.17 1007.68 1007.20 1006.75 1006.33 1005.96 1005.64 1005.38 1005.19 1005.07 1005.04 1005.09 1005.22 1005.43
1010.51 1010.55 1010.63 1010.73 1010.85 1010.96 1011.07 1011.15 1011.21 1011.25 1011.27 1011.27 1011.27 1011.28 1011.29 1011.31 1011.34 1011.37 1011.40 1011.42 1011.40 1011.34 1011.23 1011.06 1010.83 1010.54 1010.19 1009.79 1009.36 1008.89 1008.40 1007.91 1007.43 1006.96 1006.52 1006.12 1005.77 1005.49 1005.29 1005.18 1005.15 1005.23 1005.40
1011.01 1011.04 1011.11 1011.20 1011.31 1011.42 1011.52 1011.61 1011.66 1011.69 1011.69 1011.68 1011.65 1011.62 1011.59 1011.57 1011.56 1011.55 1011.55 1011.55 1011.53 1011.48 1011.40 1011.28 1011.11 1010.89 1010.62 1010.30 1009.93 1009.52 1009.08 1008.62 1008.15 1007.67 1007.20 1006.75 1006.35 1006.01 1005.74 1005.56 1005.47 1005.49 1005.60
1011.46 1011.47 1011.52 1011.60 1011.70 1011.80 1011.89 1011.96 1012.00 1012.02 1012.00 1011.96 1011.89 1011.82 1011.74 1011.67 1011.61 1011.56 1011.51 1011.48 1011.44 1011.39 1011.33 1011.24 1011.12 1010.97 1010.77 1010.54 1010.26 1009.93 1009.57 1009.17 1008.74 1008.29 1007.84 1007.39 1006.98 1006.60 1006.29 1006.07 1005.93 1005.89 1005.95
1011.80 1011.79 1011.83 1011.90 1011.98 1012.06 1012.14 1012.19 1012.22 1012.22 1012.18 1012.11 1012.01 1011.90 1011.78 1011.65 1011.54 1011.43 1011.34 1011.25 1011.18 1011.11 1011.04 1010.97 1010.88 1010.78 1010.65 1010.48 1010.28 1010.05 1009.77 1009.45 1009.09 1008.71 1008.30 1007.89 1007.50 1007.13 1006.82 1006.57 1006.41 1006.33 1006.35
1011.99 1011.99 1012.02 1012.07 1012.14 1012.21 1012.27 1012.31 1012.33 1012.31 1012.25 1012.16 1012.04 1011.90 1011.74 1011.57 1011.41 1011.25 1011.10 1010.97 1010.85 1010.74 1010.65 1010.56 1010.48 1010.39 1010.29 1010.17 1010.04 1009.87 1009.67 1009.43 1009.15 1008.85 1008.52 1008.17 1007.83 1007.51 1007.22 1006.98 1006.81 1006.72 1006.71
Thickness
5802 5800 5797 5795 5792 5790 5787 5785 5783 5781 5779 5776 5774 5771 5769 5766 5763 5759 5757 5754 5751 5748 5745 5743 5741 5740 5738 5736 5734 5732 5730 5726 5720 5721 5722 5722 5721 5719 5718 5717 5716 5715 5714
5802 5799 5796 5794 5792 5789 5786 5785 5783 5780 5778 5775 5773 5770 5767 5764 5761 5758 5755 5753 5749 5746 5743 5740 5738 5738 5735 5733 5731 5729 5727 5725 5720 5716 5716 5716 5715 5715 5714 5712 5711 5710 5709
5800 5796 5792 5791 5790 5788 5786 5784 5782 5779 5776 5773 5770 5767 5765 5763 5760 5757 5754 5751 5748 5745 5742 5738 5736 5734 5731 5729 5727 5724 5723 5722 5719 5714 5711 5711 5710 5710 5708 5706 5706 5704 5703
5796 5792 5789 5788 5787 5785 5784 5781 5779 5776 5773 5771 5768 5765 5763 5761 5758 5755 5752 5749 5745 5742 5740 5736 5733 5731 5728 5725 5723 5720 5718 5715 5713 5709 5706 5704 5703 5703 5701 5699 5697 5696 5696
5791 5787 5786 5785 5783 5781 5779 5777 5775 5772 5771 5768 5765 5761 5759 5757 5755 5752 5749 5746 5741 5738 5735 5733 5730 5728 5726 5722 5719 5715 5713 5709 5706 5703 5700 5697 5695 5694 5693 5692 5690 5688 5688
5785 5782 5782 5780 5778 5776 5774 5772 5770 5767 5765 5762 5759 5757 5754 5753 5752 5749 5746 5742 5738 5734 5730 5727 5725 5723 5720 5717 5715 5712 5709 5705 5700 5697 5694 5692 5690 5689 5688 5687 5683 5680 5678
5777 5775 5774 5773 5771 5770 5769 5765 5763 5761 5759 5755 5753 5751 5748 5747 5746 5743 5741 5737 5733 5729 5725 5721 5720 5717 5713 5710 5707 5706 5704 5703 5700 5695 5690 5688 5687 5686 5683 5680 5678 5675 5673
5768 5766 5765 5765 5764 5763 5761 5759 5757 5755 5752 5749 5746 5744 5742 5741 5739 5737 5733 5730 5726 5723 5720 5717 5713 5709 5707 5703 5700 5698 5696 5695 5694 5691 5687 5686 5684 5682 5680 5677 5674 5671 5669
5760 5760 5759 5759 5757 5755 5754 5753 5752 5749 5745 5742 5739 5736 5734 5733 5732 5730 5726 5723 5719 5716 5714 5711 5707 5703 5701 5697 5693 5689 5687 5686 5686 5684 5682 5680 5678 5676 5674 5670 5666 5662 5659
5752 5753 5752 5752 5750 5748 5747 5746 5745 5742 5739 5735 5731 5729 5727 5725 5725 5722 5719 5716 5712 5709 5706 5704 5701 5697 5695 5690 5686 5682 5678 5677 5677 5675 5674 5673 5671 5669 5667 5664 5660 5655 5651
5745 5745 5744 5744 5742 5740 5738 5736 5734 5731 5728 5725 5723 5721 5719 5719 5717 5715 5713 5710 5706 5701 5698 5695 5693 5690 5687 5684 5680 5677 5674 5672 5669 5666 5664 5663 5661 5660 5658 5656 5653 5650 5645
5736 5734 5734 5734 5733 5732 5728 5726 5724 5721 5718 5716 5714 5713 5712 5710 5709 5707 5705 5703 5700 5694 5691 5689 5687 5683 5679 5676 5673 5670 5667 5664 5661 5657 5654 5653 5651 5650 5649 5648 5645 5643 5641
5724 5723 5723 5723 5722 5721 5718 5716 5714 5712 5710 5708 5707 5704 5703 5701 5700 5699 5696 5694 5692 5689 5685 5682 5679 5674 5671 5668 5665 5662 5659 5655 5651 5648 5646 5645 5644 5642 5641 5639 5636 5634 5631
5712 5711 5711 5710 5709 5709 5707 5706 5704 5702 5700 5698 5697 5694 5693 5691 5690 5689 5687 5684 5682 5680 5676 5672 5669 5665 5662 5659 5656 5653 5650 5647 5644 5641 5639 5637 5635 5633 5630 5628 5625 5622 5619
5699 5699 5699 5698 5697 5696 5696 5694 5693 5693 5692 5690 5689 5687 5685 5684 5684 5682 5679 5676 5674 5671 5666 5660 5656 5654 5651 5648 5646 5643 5641 5638 5636 5633 5630 5627 5625 5623 5620 5618 5615 5612 5609
5687 5687 5686 5685 5685 5684 5683 5682 5682 5683 5683 5682 5681 5680 5679 5678 5675 5672 5670 5668 5664 5660 5655 5651 5648 5645 5643 5641 5638 5635 5632 5630 5628 5625 5622 5619 5616 5613 5611 5608 5606 5603 5600
5676 5675 5674 5674 5673 5672 5672 5670 5669 5669 5670 5669 5669 5669 5667 5666 5664 5661 5659 5655 5652 5648 5645 5643 5640 5637 5635 5633 5630 5627 5625 5623 5620 5616 5614 5611 5608 5605 5602 5599 5596 5594 5591
5665 5665 5664 5663 5663 5662 5662 5661 5661 5659 5657 5656 5656 5656 5655 5653 5651 5649 5646 5642 5638 5637 5637 5635 5633 5630 5627 5625 5622 5619 5616 5614 5611 5608 5605 5602 5600 5597 5594 5591 5588 5585 5582
5654 5654 5653 5653 5653 5652 5652 5651 5651 5649 5646 5645 5644 5643 5643 5641 5638 5636 5633 5632 5631 5629 5628 5627 5625 5622 5619 5617 5614 5611 5608 5605 5602 5599 5596 5593 5591 5588 5586 5583 5581 5578 5574
5645 5646 5645 5644 5643 5642 5642 5641 5639 5638 5636 5635 5635 5634 5631 5629 5626 5624 5623 5623 5622 5621 5620 5618 5616 5613 5610 5608 5605 5602 5599 5596 5593 5590 5587 5585 5583 5580 5578 5576 5573 5569 5566
5635 5635 5636 5634 5633 5633 5633 5631 5630 5628 5627 5627 5626 5626 5624 5621 5619 5617 5615 5615 5614 5612 5611 5609 5606 5604 5601 5599 5596 5593 5590 5587 5584 5582 5579 5577 5575 5572 5571 5568 5565 5561 5558
5626 5625 5625 5624 5624 5624 5623 5622 5622 5620 5619 5618 5616 5615 5612 5612 5610 5608 5608 5607 5606 5604 5602 5600 5598 5595 5593 5591 5588 5585 5582 5578 5575 5573 5571 5569 5566 5564 5562 5559 5556 5552 5549
5617 5617 5617 5617 5616 5616 5615 5614 5613 5612 5611 5609 5608 5606 5604 5603 5602 5601 5600 5599 5597 5595 5593 5591 5589 5586 5584 5582 5580 5577 5574 5570 5568 5566 5563 5560 5557 5554 5552 5548 5545 5542 5539
5611 5610 5609 5608 5608 5607 5607 5606 5605 5604 5603 5601 5600 5598 5595 5594 5594 5593 5592 5590 5588 5586 5584 5581 5579 5577 5575 5573 5570 5568 5565 5563 5561 5558 5555 5551 5548 5545 5541 5538 5535 5533 5530
5604 5603 5602 5602 5601 5600 5599 5598 5597 5596 5595 5593 5592 5590 5588 5587 5586 5584 5583 5581 5579 5577 5575 5573 5571 5569 5566 5564 5561 5559 5556 5554 5552 5549 5546 5542 5539 5536 5532 5529 5526 5524 5521
5597 5596 5596 5595 5594 5593 5591 5590 5589 5588 5587 5586 5585 5584 5582 5580 5578 5577 5575 5573 5571 5568 5566 5564 5563 5561 5558 5555 5553 5550 5547 5545 5543 5541 5537 5533 5530 5527 5524 5520 5517 5514 5512